[[{"header":{"parameterUnit":"m.s-1","parameterCategory":1,"la1":30.2991,"la2":30.254,"lo1":-89.0895,"lo2":-89.0444,"dy":0.0017,"dx":0.0017,"nx":28,"ny":28,"refTime":"2023-09-08T03:00:00:Z","depth":0,"parameterNumber":2,"parameterNumberName":"U-component_of_WINDS"},"data":[0,0,0,0,0,0,0,0,0,0,0,0,0,0,0,0,0,0,0,0,0,0,0,0,0,0,0,0,0,0,0,0,0,0,0,0,0,0,0,0,0,0,0,0,0,0,0,0,0,0,0,0,0,0,0,0,0,0,-0.5597,-0.5597,0,-0.5653,-0.5654,-0.5654,-0.5596,-0.5594,-0.5592,-0.559,-0.565,-0.5654,-0.5658,0,0,0,0,0,0,0,0,0,0,0,0,0,-0.5441,-0.5444,-0.5597,-0.5597,-0.5598,-0.5653,-0.5654,-0.5654,-0.5597,-0.5594,-0.5591,-0.5589,-0.5649,-0.5654,-0.5658,0,0,0,0,0,0,0,0,0,0,0,0,0,-0.5504,-0.5445,-0.5597,-0.5576,-0.5574,-0.5653,-0.5654,-0.5655,-0.5597,-0.5594,-0.5591,-0.5587,-0.5648,-0.5653,-0.5659,-0.5761,0,0,-0.5676,-0.5678,0,0,0,0,0,0,0,0,-0.5501,-0.551,-0.5578,-0.5577,-0.5576,-0.5614,-0.5621,-0.569,-0.5598,-0.5589,-0.559,-0.5586,-0.5641,-0.5647,-0.5665,-0.5764,-0.5766,-0.5676,-0.568,-0.5682,-0.5684,0,0,0,0,0,0,0,-0.5496,-0.5507,-0.5619,-0.5579,-0.5578,-0.5564,-0.5569,-0.5634,-0.5634,-0.5589,-0.5585,-0.5593,-0.564,-0.566,-0.5666,-0.5767,-0.5676,-0.5681,-0.5685,-0.5687,-0.5953,-0.5956,0,0,0,0,0,0,-0.5494,-0.5504,-0.5617,-0.5621,-0.5529,-0.557,-0.5576,-0.5605,-0.5633,-0.5633,-0.5595,-0.559,-0.5652,-0.566,-0.5668,-0.5791,-0.5682,-0.5687,-0.569,-0.5949,-0.5953,-0.5957,0,0,0,0,0,0,-0.5491,-0.5504,-0.5615,-0.5561,-0.5574,-0.5576,-0.561,-0.5608,-0.5628,-0.5637,-0.5637,-0.5616,-0.565,-0.566,-0.5738,-0.5792,-0.569,-0.5695,-0.5944,-0.595,-0.5955,-0.6036,0,0,0,0,0,0,-0.5486,-0.5504,-0.5542,-0.5562,-0.5577,-0.5684,-0.5613,-0.5612,-0.5638,-0.5631,-0.5656,-0.5657,-0.5648,-0.573,-0.5744,-0.5798,-0.5699,-0.594,-0.5947,-0.5954,-0.6029,-0.6043,-0.6056,0,0,0,0,0,-0.5481,-0.5564,-0.5545,-0.5559,-0.5626,-0.5687,-0.5696,-0.5682,-0.5642,-0.5682,-0.5687,-0.5657,-0.5783,-0.5739,-0.5753,-0.581,-0.5936,-0.5945,-0.5953,-0.6022,-0.6041,-0.6056,0,0,0,0,0,0,-0.5551,-0.5566,-0.5545,-0.5636,-0.5661,-0.5677,-0.5727,-0.5702,-0.5739,-0.5732,-0.5714,-0.572,-0.5803,-0.5814,-0.5764,-0.591,-0.5853,-0.5865,-0.5901,-0.5918,-0.5932,-0.5929,-0.5704,0,0,0,0,0,-0.5577,-0.5625,-0.5635,-0.5715,-0.5728,-0.5725,-0.5751,-0.5739,-0.5764,-0.5774,-0.5785,-0.5812,-0.5857,-0.5888,-0.593,-0.6028,-0.6034,-0.6074,-0.6088,-0.61,-0.6111,-0.6164,-0.6183,-0.5985,-0.5985,-0.5985,0,0,-0.5632,-0.5645,-0.5677,-0.5729,-0.5747,-0.5798,-0.5734,-0.5791,-0.5829,-0.5783,-0.5858,-0.5866,-0.5894,-0.5983,-0.6023,-0.5995,-0.6166,-0.611,-0.6119,-0.6125,-0.6175,-0.6194,-0.621,-0.599,-0.5989,-0.5989,0,0,-0.5758,-0.5772,-0.584,-0.5858,-0.5885,-0.5882,-0.5898,-0.5918,-0.5922,-0.5996,-0.5963,-0.6007,-0.6086,-0.6107,-0.6128,-0.626,-0.6234,-0.6274,-0.6348,-0.64,-0.6416,-0.643,-0.6478,-0.6495,-0.6284,-0.6285,-0.6285,0,-0.5823,-0.5897,-0.5879,-0.5938,-0.5962,-0.592,-0.599,-0.6008,-0.6048,-0.6066,-0.6033,-0.6131,-0.6146,-0.624,-0.6272,-0.629,-0.6309,-0.6273,-0.6415,-0.6428,-0.6441,-0.6487,-0.6505,-0.629,-0.6289,-0.6288,-0.6288,0,-0.5977,-0.6029,-0.608,-0.6119,-0.6148,-0.6212,-0.6203,-0.6236,-0.622,-0.622,-0.6296,-0.6313,-0.6358,-0.6379,-0.6364,-0.647,-0.6452,-0.6417,-0.636,-0.6465,-0.6508,-0.6526,-0.6297,-0.6295,-0.6293,-0.6292,0,0,-0.6152,-0.6177,-0.6196,-0.6213,-0.6238,-0.6279,-0.634,-0.6383,-0.6412,-0.6439,-0.6491,-0.6558,-0.6525,-0.6549,-0.6536,-0.6582,-0.6686,-0.6542,-0.6542,-0.657,-0.6805,-0.6833,-0.6854,-0.6668,-0.6671,-0.6673,-0.6804,0,-0.628,-0.6386,-0.637,-0.6473,-0.6522,-0.6482,-0.6535,-0.6557,-0.6559,-0.66,-0.6602,-0.665,-0.6603,-0.6617,-0.666,-0.6665,-0.6734,-0.6655,-0.6718,-0.672,-0.6715,-0.6876,-0.6906,-0.7028,-0.682,-0.6823,-0.6825,0,-0.6444,-0.6477,-0.6585,-0.6601,-0.6621,-0.667,-0.6708,-0.6747,-0.677,-0.6768,-0.6794,-0.6772,-0.6834,-0.6774,-0.6859,-0.6806,-0.683,-0.6836,-0.684,-0.6848,-0.6781,-0.6891,-0.7067,-0.7086,-0.6851,-0.6849,-0.6847,0,-0.6563,-0.6634,-0.6708,-0.6723,-0.6744,-0.6779,-0.679,-0.6809,-0.6836,-0.6869,-0.6886,-0.6926,-0.6948,-0.698,-0.6969,-0.6926,-0.7058,-0.6996,-0.7059,-0.706,-0.7091,-0.709,-0.7277,-0.7103,-0.7102,-0.7102,-0.7102,0,-0.671,-0.6778,-0.6762,-0.6808,-0.6882,-0.6862,-0.6937,-0.6943,-0.696,-0.7007,-0.6974,-0.7018,-0.7,-0.7044,-0.7036,-0.7109,-0.7118,-0.7119,-0.7117,-0.7124,-0.7124,-0.7142,-0.7134,-0.7107,-0.7106,-0.7105,-0.7104,0,-0.6857,-0.6849,-0.6927,-0.694,-0.6944,-0.6999,-0.701,-0.7053,-0.7051,-0.711,-0.7123,-0.712,-0.7169,-0.7161,-0.7215,-0.721,-0.7301,-0.7287,-0.7294,-0.7291,-0.7356,-0.7351,-0.7562,-0.759,-0.7396,-0.7398,-0.7399,0,-0.6953,-0.7004,-0.7022,-0.705,-0.7063,-0.7108,-0.7135,-0.7117,-0.7146,-0.7175,-0.7215,-0.726,-0.7296,-0.7377,-0.738,-0.7421,-0.7409,-0.748,-0.7416,-0.7421,-0.7413,-0.7411,-0.7417,-0.7495,-0.7497,-0.7499,-0.75,0,-0.7124,-0.7116,-0.7155,-0.7193,-0.7225,-0.7254,-0.728,-0.7305,-0.7289,-0.7323,-0.7372,-0.74,-0.7454,-0.7501,-0.7539,-0.755,-0.7524,-0.752,-0.7537,-0.7546,-0.7549,-0.755,-0.7331,-0.7516,-0.7514,-0.7513,-0.7512,-0.7512,-0.725,-0.7293,-0.7312,-0.7357,-0.7374,-0.7398,-0.7439,-0.7441,-0.7481,-0.7524,-0.751,-0.7567,-0.7587,-0.7636,-0.7651,-0.7695,-0.7669,-0.7693,-0.77,-0.7707,-0.7716,-0.7539,-0.7701,-0.7701,-0.7701,-0.77,-0.77,0,-0.7421,-0.743,-0.7471,-0.7507,-0.7542,-0.7511,-0.7537,-0.7569,-0.7619,-0.764,-0.7675,-0.7732,-0.7776,-0.7781,-0.7823,-0.7857,-0.7846,-0.7869,-0.7868,-0.7871,-0.7736,-0.7718,-0.7878,-0.7877,-0.7877,-0.7877,-0.7877,-0.7877,-0.7514,-0.7586,-0.7581,-0.7662,-0.767,-0.7725,-0.7743,-0.7765,-0.7782,-0.7846,-0.7882,-0.7884,-0.7899,-0.7942,-0.7981,-0.7981,-0.7999,-0.8028,-0.8024,-0.7898,-0.7881,-0.7864,-0.7847,-0.8031,-0.8031,-0.8156,-0.8157,-0.8158]},{"header":{"parameterUnit":"m.s-1","parameterCategory":1,"la1":30.2991,"la2":30.254,"lo1":-89.0895,"lo2":-89.0444,"dy":0.0017,"dx":0.0017,"nx":28,"ny":28,"refTime":"2023-09-08T03:00:00:Z","depth":0,"parameterNumber":3,"parameterNumberName":"V-component_of_WINDS"},"data":[0,0,0,0,0,0,0,0,0,0,0,0,0,0,0,0,0,0,0,0,0,0,0,0,0,0,0,0,0,0,0,0,0,0,0,0,0,0,0,0,0,0,0,0,0,0,0,0,0,0,0,0,0,0,0,0,0,0,-4.1842,-4.1843,0,-4.1923,-4.1924,-4.1925,-4.1868,-4.1866,-4.1863,-4.1861,-4.1939,-4.1944,-4.1948,0,0,0,0,0,0,0,0,0,0,0,0,0,-4.1634,-4.1638,-4.1842,-4.1843,-4.1844,-4.1923,-4.1924,-4.1925,-4.1869,-4.1866,-4.1862,-4.186,-4.1938,-4.1943,-4.1949,0,0,0,0,0,0,0,0,0,0,0,0,0,-4.1721,-4.164,-4.1842,-4.1825,-4.1825,-4.1922,-4.1924,-4.1925,-4.1869,-4.1865,-4.1862,-4.1858,-4.1936,-4.1943,-4.1949,-4.2066,0,0,-4.197,-4.1973,0,0,0,0,0,0,0,0,-4.1716,-4.1728,-4.1827,-4.1827,-4.1826,-4.1882,-4.1879,-4.1972,-4.187,-4.1852,-4.1861,-4.1856,-4.1923,-4.193,-4.1954,-4.207,-4.2073,-4.197,-4.1974,-4.1977,-4.1979,0,0,0,0,0,0,0,-4.171,-4.1724,-4.1874,-4.1828,-4.1828,-4.1812,-4.1821,-4.1897,-4.1908,-4.1853,-4.185,-4.186,-4.1922,-4.1948,-4.1955,-4.2074,-4.197,-4.1976,-4.198,-4.1983,-4.2288,-4.2292,0,0,0,0,0,0,-4.1706,-4.172,-4.1871,-4.1876,-4.1761,-4.1819,-4.1828,-4.1868,-4.1907,-4.1909,-4.1863,-4.1857,-4.1938,-4.1948,-4.1958,-4.2096,-4.1977,-4.1983,-4.1987,-4.2284,-4.2289,-4.2294,0,0,0,0,0,0,-4.1702,-4.172,-4.1868,-4.1797,-4.1815,-4.1827,-4.1871,-4.1871,-4.1897,-4.1914,-4.1915,-4.1888,-4.1935,-4.1948,-4.204,-4.2098,-4.1986,-4.1992,-4.2279,-4.2286,-4.2292,-4.2375,0,0,0,0,0,0,-4.1696,-4.1719,-4.1764,-4.1799,-4.1819,-4.195,-4.1875,-4.1875,-4.1909,-4.1902,-4.1937,-4.194,-4.1933,-4.203,-4.2046,-4.2105,-4.1998,-4.2274,-4.2282,-4.229,-4.2367,-4.2383,-4.2397,0,0,0,0,0,-4.1689,-4.1784,-4.1767,-4.1786,-4.1876,-4.1954,-4.1965,-4.1957,-4.1914,-4.1959,-4.197,-4.1938,-4.2089,-4.204,-4.2058,-4.212,-4.227,-4.228,-4.2289,-4.236,-4.238,-4.2396,0,0,0,0,0,0,-4.1755,-4.1788,-4.177,-4.1879,-4.1914,-4.1944,-4.2001,-4.1978,-4.2025,-4.2016,-4.2003,-4.2012,-4.2107,-4.2122,-4.2067,-4.2234,-4.2173,-4.2186,-4.2221,-4.2239,-4.2254,-4.2248,-4.2003,0,0,0,0,0,-4.1783,-4.1844,-4.1869,-4.1963,-4.1982,-4.1989,-4.2022,-4.2013,-4.2048,-4.2062,-4.208,-4.2114,-4.2168,-4.2205,-4.2256,-4.2369,-4.2375,-4.242,-4.2435,-4.2447,-4.2459,-4.2518,-4.2538,-4.2324,-4.2324,-4.2324,0,0,-4.184,-4.1866,-4.1905,-4.1977,-4.2003,-4.2066,-4.2001,-4.207,-4.2116,-4.2072,-4.2159,-4.2173,-4.221,-4.2312,-4.2358,-4.2328,-4.2519,-4.2459,-4.2469,-4.2473,-4.2529,-4.255,-4.2568,-4.233,-4.2329,-4.2328,0,0,-4.1976,-4.2003,-4.2083,-4.2111,-4.2152,-4.2155,-4.2175,-4.2208,-4.2216,-4.2304,-4.2272,-4.2325,-4.242,-4.2447,-4.2474,-4.262,-4.2592,-4.2637,-4.2715,-4.2773,-4.279,-4.2805,-4.2856,-4.2874,-4.2648,-4.2648,-4.2648,0,-4.2042,-4.2136,-4.2127,-4.2199,-4.2231,-4.2195,-4.2276,-4.2302,-4.2357,-4.2379,-4.2345,-4.2463,-4.2486,-4.2593,-4.2629,-4.2652,-4.2672,-4.2632,-4.2788,-4.2803,-4.2817,-4.2865,-4.2885,-4.2653,-4.2653,-4.2652,-4.2652,0,-4.2215,-4.228,-4.234,-4.2396,-4.2434,-4.251,-4.2511,-4.2551,-4.2538,-4.2545,-4.2634,-4.266,-4.2715,-4.274,-4.2728,-4.2846,-4.2825,-4.279,-4.2728,-4.2842,-4.2888,-4.2906,-4.2661,-4.2659,-4.2657,-4.2656,0,0,-4.2395,-4.2444,-4.2467,-4.2491,-4.2532,-4.2582,-4.2655,-4.2711,-4.2745,-4.2784,-4.2844,-4.2925,-4.2892,-4.2922,-4.2913,-4.2964,-4.3077,-4.2922,-4.2923,-4.2949,-4.3206,-4.3232,-4.3254,-4.3059,-4.3062,-4.3065,-4.3203,0,-4.2533,-4.2663,-4.2656,-4.2777,-4.2836,-4.2803,-4.2867,-4.2898,-4.2906,-4.2957,-4.2965,-4.3023,-4.2976,-4.2993,-4.3042,-4.3053,-4.3128,-4.3043,-4.3113,-4.3115,-4.3104,-4.3278,-4.3305,-4.3434,-4.322,-4.3223,-4.3226,0,-4.2711,-4.2757,-4.2884,-4.2916,-4.2941,-4.2999,-4.3049,-4.3098,-4.3132,-4.3134,-4.3168,-4.315,-4.3222,-4.3159,-4.3258,-4.32,-4.3228,-4.3237,-4.3242,-4.3248,-4.3177,-4.3287,-4.3475,-4.3494,-4.3254,-4.3251,-4.3249,0,-4.2829,-4.2923,-4.301,-4.3032,-4.3072,-4.3113,-4.3131,-4.3162,-4.3196,-4.3239,-4.326,-4.3311,-4.3338,-4.3377,-4.3373,-4.3327,-4.3472,-4.3409,-4.3475,-4.3475,-4.3507,-4.3505,-4.3701,-4.3526,-4.3526,-4.3526,-4.3525,0,-4.2983,-4.3062,-4.3064,-4.3118,-4.3204,-4.3196,-4.3281,-4.3295,-4.3322,-4.3377,-4.3351,-4.3402,-4.3394,-4.3445,-4.3441,-4.3523,-4.3536,-4.3538,-4.3536,-4.354,-4.354,-4.3558,-4.3549,-4.3531,-4.353,-4.3529,-4.3528,0,-4.313,-4.3134,-4.3228,-4.3258,-4.3267,-4.333,-4.3355,-4.3405,-4.3411,-4.348,-4.3496,-4.3505,-4.3563,-4.3563,-4.3629,-4.3627,-4.3727,-4.3715,-4.3716,-4.3713,-4.3778,-4.3772,-4.3993,-4.4021,-4.3829,-4.3831,-4.3832,0,-4.3227,-4.3287,-4.3324,-4.336,-4.3381,-4.3438,-4.3473,-4.3466,-4.3502,-4.3546,-4.359,-4.3647,-4.3692,-4.3787,-4.3798,-4.3848,-4.3837,-4.3911,-4.3844,-4.3846,-4.3837,-4.3833,-4.3839,-4.3924,-4.3926,-4.3928,-4.3929,0,-4.34,-4.34,-4.3451,-4.3503,-4.3545,-4.3585,-4.3622,-4.3652,-4.3649,-4.3691,-4.3752,-4.3787,-4.3855,-4.3911,-4.396,-4.3976,-4.3952,-4.395,-4.3968,-4.3972,-4.397,-4.3971,-4.375,-4.3945,-4.3943,-4.3942,-4.3941,-4.3941,-4.3525,-4.3576,-4.361,-4.3668,-4.3695,-4.373,-4.3779,-4.3791,-4.3842,-4.3898,-4.389,-4.3957,-4.3989,-4.4052,-4.4073,-4.4124,-4.4098,-4.4124,-4.413,-4.4136,-4.4143,-4.3963,-4.4133,-4.4132,-4.4132,-4.4131,-4.4131,0,-4.3695,-4.3716,-4.3769,-4.3822,-4.3867,-4.3842,-4.3881,-4.392,-4.398,-4.4012,-4.4057,-4.4126,-4.418,-4.4195,-4.4247,-4.4285,-4.4275,-4.4298,-4.4295,-4.4299,-4.4164,-4.4143,-4.4305,-4.4305,-4.4305,-4.4305,-4.4305,-4.4305,-4.379,-4.3875,-4.3878,-4.3976,-4.3995,-4.4062,-4.4086,-4.4118,-4.4143,-4.4222,-4.4267,-4.4277,-4.4302,-4.4355,-4.4403,-4.4406,-4.4426,-4.4454,-4.4452,-4.4326,-4.4309,-4.4292,-4.4272,-4.4459,-4.4459,-4.4583,-4.4584,-4.4585]}]]